Hourly Data Report for October 15, 2014

All times are specified in Local Standard Time (LST). Add 1 hour to adjust for Daylight Saving Time where and when it is observed.

RANKIN INLET A
NUNAVUT

62°48'38.000" N
92°06'53.000" W
32.30 m
2303405
71083
YRT

Download Data

Hourly Data (October 2014)
Hourly Data Report for October 15, 2014
Temp Definition
°C
Dew Point Temp Definition
°C
Rel Hum Definition
%
Wind Dir Definition
10's deg

Wind Spd Definition
km/h
Visibility Definition
km
Stn Press Definition
kPa
Hmdx Definition


Wind Chill Definition


Weather Definition


TIME
00:00 Legend Double Dagger -5.7 -7.1 90 30 12 24.1 100.86   -11 Cloudy
01:00 Legend Double Dagger -6.7 -7.9 91 29 13 24.1 100.89   -12 LegendNANA
02:00 Legend Double Dagger -6.2 -7.4 91 30 17 24.1 100.91   -12 LegendNANA
03:00 Legend Double Dagger -5.9 -7.3 90 29 13 24.1 100.95   -11 Mainly Clear
04:00 Legend Double Dagger -5.0 -6.4 90 29 13 24.1 100.94   -10 LegendNANA
05:00 Legend Double Dagger -4.8 -5.9 92 32 14 24.1 100.96   -10 Snow
06:00 Legend Double Dagger -5.9 -6.9 93 34 10 24.1 100.94   -10 Snow
07:00 Legend Double Dagger -6.7 -7.9 91 31 7 24.1 100.96   -10 Snow
08:00 Legend Double Dagger -6.5 -7.6 92 33 8 24.1 100.96   -10 Snow
09:00 Legend Double Dagger -4.7 -5.8 92 35 11 24.1 100.96   -9 Mostly Cloudy
10:00 Legend Double Dagger -4.3 -7.3 80 32 15 24.1 100.99   -10 LegendNANA
11:00 Legend Double Dagger -4.3 -7.6 78 35 12 24.1 100.97   -9 LegendNANA
12:00 Legend Double Dagger -4.2 -7.7 77 34 12 24.1 100.99   -9 Mostly Cloudy
13:00 Legend Double Dagger -4.3 -6.9 82 35 14 24.1 101.02   -9 LegendNANA
14:00 Legend Double Dagger -4.6 -6.8 85 34 10 24.1 101.02   -9 LegendNANA
15:00 Legend Double Dagger -4.2 -6.1 87 34 9 24.1 101.01   -8 Mostly Cloudy
16:00 Legend Double Dagger -3.6 -6.2 82 1 19 24.1 101.01   -10 LegendNANA
17:00 Legend Double Dagger -3.9 -6.1 85 2 15 24.1 101.01   -9 LegendNANA
18:00 Legend Double Dagger -4.2 -6.4 85 4 10 24.1 101.02   -8 Mostly Cloudy
19:00 Legend Double Dagger -4.2 -6.2 86 3 7 24.1 101.05   -7 LegendNANA
20:00 Legend Double Dagger -4.6 -6.1 89 35 11 24.1 101.08   -9 LegendNANA
21:00 Legend Double Dagger -4.7 -6.1 90 2 16 24.1 101.12   -10 Mostly Cloudy
22:00 Legend Double Dagger -5.4 -6.4 93 1 19 24.1 101.15   -12 LegendNANA
23:00 Legend Double Dagger -5.6 -6.7 92 1 19 24.1 101.16   -12 LegendNANA

Notes on Data Quality.

Legend

  • E = Estimated
  • M = Missing
  • NA = Not Available
  • ‡ = Partner data that is not subject to review by the National Climate Archives
Date modified: